Starlink 32250

operational
NORAD ID: 60425 Int'l Des: 2024-144 Owner: SPXS Country: US Constellation: starlink
LEOCIRCULAR

关于 Starlink 32250

正在加载描述...

实时位置

正在加载3D地球...

即将过境

高度历史

Altitude vs Time

uPlot chart will show altitude changes over time

两行轨道根数

1 60425U 24144A 25352.09986041 -.00000254 00000-0 35645-5 0 9996
2 60425 53.1594 236.3796 0001415 82.8095 277.3066 15.30199459 75914
Epoch: Dec 18, 2025 • Age: 12 hours

当前状态

高度 476.0 km
速度 7.63 km/s
星下点 26.70°N, 94.62°E
发射日期 Aug 12, 2024
运行时间 1.3 years
类型 internet

技术详情

分类 Payload
质量 730.00 kg
干质量 700.00 kg
总质量 730.00 kg
长度 0.30 m
直径 4.10 m
跨度 29.00 m
形状 Box + pan
制造商 SPXS
平台类型 Starlink V2M
阶段状态 In Orbit
所有者/国家 SPXS/US

大型星座

Loading constellations...